When you browse on this site, cookies collect data to enhance your experience and personalize the content and advertising you see.
Visit our Privacy Policy to learn more. By continuing to use the site, you agree to this use of cookies and data.

Hourly Weather Nakhchivan

Today, 11 July, Saturday

Time Temperature Precipitation Wind Pressure Humidity
00:00 +25°C° 0.6 mm 2 mps 688 mmHg 60%
01:00 +25°C° 0.2 mm 2 mps 688 mmHg 61%
02:00 +25°C° 0.2 mm 1 mps 687 mmHg 61%
03:00 +25°C° 0 mm 1 mps 687 mmHg 60%
04:00 +25°C° 0 mm 1 mps 688 mmHg 60%
05:00 +25°C° 0 mm 1 mps 688 mmHg 61%
06:00 +25°C° 0 mm 1 mps 688 mmHg 61%
07:00 +25°C° 0 mm 2 mps 687 mmHg 57%
08:00 +26°C° 0 mm 2 mps 687 mmHg 54%
09:00 +27°C° 0 mm 1 mps 687 mmHg 49%
10:00 +29°C° 0 mm 2 mps 687 mmHg 45%
11:00 +30°C° 0 mm 3 mps 687 mmHg 41%
12:00 +32°C° 0 mm 4 mps 687 mmHg 37%
13:00 +33°C° 0 mm 4 mps 687 mmHg 36%
14:00 +33°C° 0 mm 5 mps 687 mmHg 34%
15:00 +34°C° 0 mm 5 mps 687 mmHg 32%
16:00 +33°C° 0.2 mm 6 mps 687 mmHg 35%
17:00 +32°C° 0.2 mm 6 mps 687 mmHg 37%
18:00 +30°C° 0.2 mm 7 mps 687 mmHg 39%
19:00 +29°C° 0.1 mm 6 mps 687 mmHg 42%
20:00 +28°C° 0.1 mm 5 mps 687 mmHg 45%
21:00 +27°C° 0.1 mm 4 mps 687 mmHg 48%
22:00 +27°C° 0 mm 3 mps 687 mmHg 50%
23:00 +26°C° 0 mm 3 mps 687 mmHg 52%

Tomorrow, 12 July, Sunday

Time Temperature Precipitation Wind Pressure Humidity
00:00 +26°C° 0 mm 2 mps 687 mmHg 54%
01:00 +25°C° 0 mm 2 mps 686 mmHg 55%
02:00 +25°C° 0 mm 2 mps 686 mmHg 57%
03:00 +24°C° 0 mm 2 mps 686 mmHg 59%
04:00 +24°C° 0 mm 2 mps 686 mmHg 59%
05:00 +24°C° 0 mm 2 mps 685 mmHg 59%
06:00 +24°C° 0 mm 2 mps 685 mmHg 59%
07:00 +25°C° 0 mm 2 mps 686 mmHg 54%
08:00 +26°C° 0 mm 2 mps 686 mmHg 50%
09:00 +27°C° 0 mm 2 mps 686 mmHg 45%
10:00 +28°C° 0 mm 2 mps 686 mmHg 41%
11:00 +30°C° 0 mm 3 mps 685 mmHg 37%
12:00 +31°C° 0 mm 3 mps 685 mmHg 33%
13:00 +33°C° 0 mm 3 mps 685 mmHg 31%
14:00 +34°C° 0 mm 4 mps 685 mmHg 29%
15:00 +35°C° 0 mm 4 mps 684 mmHg 27%
16:00 +34°C° 0 mm 4 mps 684 mmHg 29%
17:00 +34°C° 0 mm 5 mps 684 mmHg 30%
18:00 +33°C° 0 mm 5 mps 684 mmHg 31%
19:00 +32°C° 0.1 mm 5 mps 684 mmHg 34%
20:00 +30°C° 0.1 mm 4 mps 684 mmHg 37%
21:00 +29°C° 0.1 mm 4 mps 684 mmHg 40%
22:00 +28°C° 0.3 mm 4 mps 684 mmHg 42%
23:00 +27°C° 0.3 mm 3 mps 684 mmHg 45%

Day after tomorrow, 13 July, Monday

Time Temperature Precipitation Wind Pressure Humidity
00:00 +27°C° 0.3 mm 2 mps 683 mmHg 47%
01:00 +26°C° 0.3 mm 2 mps 683 mmHg 49%
02:00 +25°C° 0.3 mm 2 mps 683 mmHg 51%
03:00 +25°C° 0.3 mm 1 mps 682 mmHg 53%
04:00 +25°C° 0 mm 1 mps 682 mmHg 54%
05:00 +25°C° 0 mm 1 mps 682 mmHg 55%
06:00 +25°C° 0 mm 1 mps 682 mmHg 56%
07:00 +26°C° 0.1 mm 1 mps 682 mmHg 53%
08:00 +26°C° 0.1 mm 1 mps 682 mmHg 50%
09:00 +27°C° 0.1 mm 1 mps 682 mmHg 47%
10:00 +29°C° 0 mm 1 mps 682 mmHg 43%
11:00 +30°C° 0 mm 1 mps 682 mmHg 39%
12:00 +31°C° 0 mm 1 mps 682 mmHg 35%
13:00 +32°C° 0 mm 1 mps 682 mmHg 32%
14:00 +33°C° 0 mm 1 mps 682 mmHg 30%
15:00 +34°C° 0 mm 1 mps 682 mmHg 27%
16:00 +33°C° 0.3 mm 3 mps 682 mmHg 33%
17:00 +30°C° 0.3 mm 5 mps 682 mmHg 39%
18:00 +28°C° 0.3 mm 7 mps 682 mmHg 45%
19:00 +27°C° 0.3 mm 5 mps 682 mmHg 50%
20:00 +26°C° 0.3 mm 3 mps 683 mmHg 54%
21:00 +25°C° 0.3 mm 2 mps 683 mmHg 58%
22:00 +25°C° 0 mm 1 mps 683 mmHg 57%
23:00 +26°C° 0 mm 1 mps 683 mmHg 56%

14 July, Tuesday

Time Temperature Precipitation Wind Pressure Humidity
00:00 +24°C° 0 mm 0 mps 683 mmHg 56%
01:00 +23°C° 0 mm 0 mps 683 mmHg 57%
02:00 +23°C° 0 mm 0 mps 683 mmHg 58%
03:00 +23°C° 0 mm 0 mps 683 mmHg 59%
04:00 +25°C° 0 mm 1 mps 683 mmHg 59%
05:00 +25°C° 0 mm 1 mps 683 mmHg 59%
06:00 +25°C° 0 mm 1 mps 683 mmHg 59%
07:00 +26°C° 0 mm 1 mps 683 mmHg 56%
08:00 +27°C° 0 mm 1 mps 683 mmHg 52%
09:00 +27°C° 0 mm 2 mps 684 mmHg 49%
10:00 +29°C° 0 mm 1 mps 684 mmHg 44%
11:00 +30°C° 0 mm 1 mps 684 mmHg 40%
12:00 +31°C° 0 mm 1 mps 684 mmHg 36%
13:00 +32°C° 0 mm 1 mps 684 mmHg 33%
14:00 +33°C° 0 mm 1 mps 684 mmHg 30%
15:00 +35°C° 0 mm 2 mps 684 mmHg 28%
16:00 +35°C° 0 mm 2 mps 684 mmHg 29%
17:00 +34°C° 0 mm 2 mps 684 mmHg 30%
18:00 +34°C° 0 mm 2 mps 684 mmHg 31%
19:00 +31°C° 0.2 mm 2 mps 685 mmHg 36%
20:00 +30°C° 0.2 mm 2 mps 685 mmHg 41%
21:00 +29°C° 0.2 mm 1 mps 685 mmHg 45%
22:00 +28°C° 0.1 mm 1 mps 685 mmHg 47%
23:00 +28°C° 0.1 mm 1 mps 686 mmHg 48%

15 July, Wednesday

Time Temperature Precipitation Wind Pressure Humidity
00:00 +28°C° 0.1 mm 1 mps 686 mmHg 49%
01:00 +27°C° 0.1 mm 1 mps 686 mmHg 51%
02:00 +27°C° 0.1 mm 1 mps 686 mmHg 52%
03:00 +26°C° 0.1 mm 1 mps 686 mmHg 54%
04:00 +26°C° 0 mm 1 mps 686 mmHg 54%
05:00 +26°C° 0 mm 1 mps 686 mmHg 53%
06:00 +25°C° 0 mm 2 mps 686 mmHg 52%
07:00 +27°C° 0 mm 2 mps 686 mmHg 49%
08:00 +28°C° 0 mm 2 mps 686 mmHg 45%
09:00 +29°C° 0 mm 2 mps 686 mmHg 41%
10:00 +30°C° 0 mm 2 mps 686 mmHg 39%
11:00 +31°C° 0 mm 2 mps 686 mmHg 36%
12:00 +32°C° 0 mm 1 mps 686 mmHg 33%
13:00 +33°C° 0 mm 1 mps 686 mmHg 30%
14:00 +34°C° 0 mm 1 mps 686 mmHg 28%
15:00 +35°C° 0 mm 1 mps 686 mmHg 25%
16:00 +36°C° 0 mm 2 mps 686 mmHg 25%
17:00 +36°C° 0 mm 2 mps 685 mmHg 25%
18:00 +36°C° 0 mm 3 mps 685 mmHg 25%
19:00 +35°C° 0.1 mm 3 mps 685 mmHg 30%
20:00 +32°C° 0.1 mm 2 mps 686 mmHg 35%
21:00 +30°C° 0.1 mm 2 mps 686 mmHg 39%
22:00 +29°C° 0.2 mm 2 mps 685 mmHg 43%
23:00 +28°C° 0.2 mm 2 mps 685 mmHg 46%

16 July, Thursday

Time Temperature Precipitation Wind Pressure Humidity
00:00 +28°C° 0.2 mm 2 mps 685 mmHg 49%
01:00 +27°C° 0.3 mm 2 mps 685 mmHg 51%
02:00 +26°C° 0.3 mm 2 mps 685 mmHg 54%
03:00 +26°C° 0.3 mm 1 mps 685 mmHg 56%
04:00 +25°C° 0.1 mm 1 mps 685 mmHg 56%
05:00 +25°C° 0.1 mm 1 mps 685 mmHg 57%
06:00 +25°C° 0.1 mm 1 mps 685 mmHg 57%
07:00 +26°C° 0.1 mm 1 mps 685 mmHg 55%
08:00 +27°C° 0.1 mm 1 mps 685 mmHg 52%
09:00 +28°C° 0.1 mm 1 mps 684 mmHg 49%
10:00 +29°C° 0 mm 1 mps 684 mmHg 45%
11:00 +31°C° 0 mm 1 mps 684 mmHg 41%
12:00 +32°C° 0 mm 2 mps 684 mmHg 38%
13:00 +34°C° 0 mm 2 mps 684 mmHg 35%
14:00 +35°C° 0 mm 3 mps 683 mmHg 33%
15:00 +36°C° 0 mm 4 mps 683 mmHg 30%
16:00 +34°C° 0.6 mm 4 mps 683 mmHg 35%
17:00 +32°C° 0.6 mm 4 mps 682 mmHg 41%
18:00 +29°C° 0.6 mm 4 mps 682 mmHg 46%
19:00 +28°C° 0.8 mm 5 mps 682 mmHg 50%
20:00 +27°C° 0.8 mm 5 mps 683 mmHg 55%
21:00 +26°C° 0.8 mm 5 mps 683 mmHg 59%
22:00 +26°C° 0.1 mm 4 mps 683 mmHg 58%
23:00 +26°C° 0.1 mm 3 mps 683 mmHg 57%
Show more